Regional Weather Roundup
Issued by NWS Charleston, WV

Home | Current Version | Previous Version | Text Only | Print | Product List | Glossary On
Versions: 1 2 3 4 5 6 7 8 9 10 11 12 13 14 15 16 17 18 19 20 21 22 23 24 25 26 27 28 29 30 31 32 33 34 35 36 37 38 39 40 41 42 43 44 45 46 47 48 49 50
000
ASUS41 KRLX 111510
RWRRLX
West Virginia Regional Weather Roundup
National Weather Service Charleston WV
1000 AM EST MON DEC 11 2017

Note: "fair" indicates few or no clouds below 12,000 feet with no
significant weather and/or obstructions to visibility.

WVZ003-111600-
Northern Panhandle of West Virginia

CITY           SKY/WX    TMP DP  RH WIND       PRES   REMARKS
WHEELING       CLOUDY    31  18  58 SW10      30.02F
$$

WVZ009-111600-
Northwest West Virginia

CITY           SKY/WX    TMP DP  RH WIND       PRES   REMARKS
PARKERSBURG    SUNNY     34  22  61 W8        30.09S
$$

WVZ006-111600-
Western West Virginia

CITY           SKY/WX    TMP DP  RH WIND       PRES   REMARKS
HUNTINGTON     SUNNY     34  22  61 SW3       30.08F
$$

WVZ015-111600-
West Central West Virginia

CITY           SKY/WX    TMP DP  RH WIND       PRES   REMARKS
CHARLESTON     MOSUNNY   37  22  54 SW5       30.08S
$$

WVZ022-031-111600-
North Central West Virginia

CITY           SKY/WX    TMP DP  RH WIND       PRES   REMARKS
CLARKSBURG     MOSUNNY   36  22  56 SW7       30.05S
MORGANTOWN     MOSUNNY   34  20  56 SW5       30.04F
$$

WVZ025-035-042-045-111600-
Southern West Virginia

CITY           SKY/WX    TMP DP  RH WIND       PRES   REMARKS
BECKLEY        SUNNY     33  22  63 SW9       30.04S
LOGAN            N/A     37  23  56 CALM      30.05F
BLUEFIELD      SUNNY     32  21  64 SW10      30.05S
LEWISBURG      SUNNY     34  23  63 SW10      30.06F
$$

WVZ047-111600-
Northern Mountains of West Virginia

CITY           SKY/WX    TMP DP  RH WIND       PRES   REMARKS
ELKINS         MOSUNNY   34  21  59 SW8       30.03F
$$

WVZ052-111600-
Eastern Panhandle of West Virginia

CITY           SKY/WX    TMP DP  RH WIND       PRES   REMARKS
MARTINSBURG    MOSUNNY   39  20  46 W10       30.06R
PETERSBURG     SUNNY     40  21  47 S5        30.05F
$$



USA.gov is the U.S. government's official web portal to all federal, state and local government web resources and services.